Torna al catalogo

STARLINK-37384

AttivoComunicazioniVLEO
NORAD 69460·PAYLOAD·🇺🇸 United States

Lanciato Jun 8, 2026 da Cape Canaveral Space Force Station

Loading…

Prossimi Passaggi (prossime 24 ore)

TLE

AggiornatoSource: CelesTrak SupGP

Epoca: Sep 15, 2026, 04:14 UTC

1 69460C 26127T   26258.17687500 -.00015191  00000+0 -44875-3 0  2587
2 69460  53.1577 190.8484 0001346  84.6066 189.0544 15.34403260    13

Traccia STARLINK-37384 in tempo reale con AllMySat

Download on the App Store